CAPE
0 0 0 0 0 0 0 0 0 0 0 0 0 0 0 0 0 0 0 0 0 0 0 0 0 0 0 0 0 0 0 0 0 0 0 0 0 0 0 0 0 0 0 0
0 0 0 0 0 0 0 0 0 0 0 0 0 0 0 0 0 0 0 0 0 0 0 0 0 0 0 0 0 0 0 0 0 0 0 0 0 0 0 0 0 0 0 0
0 0 0 0 0 0 0 0 0 0 0 0 0 0 0 0 0 0 0 0 0 0 0 0 0 0 0 0 0 0 0 0 1 0 2 0 0 0 0 0 0 1 0 12
0 0 0 0 0 0 0 0 0 0 0 0 0 0 0 0 0 0 0 0 0 0 0 0 0 0 0 0 0 0 0 0 1 3 0 1 6 8 1 4 3 0 0 0
0 0 0 0 0 0 0 0 0 0 0 0 0 0 0 0 0 0 0 0 0 0 0 0 0 0 0 0 0 0 0 0 0 3 6 6 6 11 11 14 8 7 1 0
0 0 0 0 0 0 0 0 0 0 0 0 0 0 0 0 0 0 0 0 0 0 0 0 0 0 0 0 0 0 1 2 5 8 9 5 5 3 4 5 10 9 7 6
0 0 0 0 0 0 0 0 0 0 0 0 0 0 0 0 0 0 0 0 0 0 0 0 0 0 0 0 0 1 2 3 4 5 5 4 2 2 2 2 3 7 8 11
0 0 0 0 0 0 0 0 0 0 0 0 0 0 0 0 0 0 0 0 0 0 0 0 0 0 0 0 1 2 4 4 3 2 2 2 2 1 2 1 2 2 4 5
0 0 0 0 0 0 0 0 0 0 0 0 0 0 0 0 0 0 0 0 0 0 0 0 0 0 0 1 1 4 4 2 1 1 1 1 2 1 1 0 1 1 2 4
0 0 0 0 0 0 0 0 0 0 0 0 0 0 0 0 0 0 0 0 0 0 0 0 0 0 0 0 2 2 2 2 1 1 1 1 1 2 7 6 3 0 1 2
0 0 0 0 0 0 0 0 0 0 0 0 0 0 0 0 0 0 0 0 0 0 0 0 0 0 0 0 2 1 1 1 1 1 0 0 7 7 5 3 1 0 1 1
0 0 0 0 0 0 0 0 0 0 0 0 0 0 0 0 0 0 0 0 0 0 0 0 0 0 0 1 1 1 1 1 1 3 4 6 5 3 2 2 1 8 1 1
0 0 0 0 0 0 0 0 0 0 0 0 0 0 0 0 0 0 0 0 0 0 0 0 0 0 0 1 1 1 1 1 0 4 3 5 3 4 2 2 2 2 1 0
0 0 0 0 0 0 0 0 0 0 0 0 0 0 0 0 0 0 0 0 0 0 0 0 0 0 1 1 1 1 1 0 2 1 1 3 3 4 3 2 2 1 1 0
0 0 0 0 0 0 0 0 0 0 0 0 0 0 0 0 0 0 0 0 0 0 0 0 0 0 2 1 1 1 1 1 4 0 1 4 3 4 2 2 1 2 1 0
0 0 0 0 0 0 0 0 0 0 0 0 0 0 0 0 0 0 0 0 0 0 0 0 0 1 2 1 2 1 1 0 2 0 1 5 3 2 1 1 1 2 2 6
0 0 0 0 0 0 0 0 0 0 0 0 0 0 0 0 0 0 0 0 0 0 0 0 0 2 2 1 2 2 2 1 0 0 0 1 2 4 2 1 0 1 2 2
0 0 0 0 0 0 0 0 0 0 0 0 0 0 0 0 0 0 0 0 0 0 0 0 1 1 1 0 1 2 0 0 0 7 0 0 1 0 3 0 1 0 1 1
0 0 0 0 0 0 0 0 0 0 0 0 0 0 0 0 0 0 0 0 0 0 0 0 0 0 0 0 1 0 0 0 2 3 0 0 0 0 0 1 0 0 0 1
0 0 0 0 0 0 0 0 0 0 0 0 0 0 0 0 0 0 0 0 0 0 0 0 0 0 0 1 0 0 0 0 3 0 0 0 0 0 0 0 1 0 0 0
0 0 0 0 0 0 0 0 0 0 0 0 0 0 0 0 0 0 0 0 0 0 0 0 0 0 0 0 0 0 0 2 1 0 0 0 0 1 0 0 0 0 0 0
0 0 0 0 0 0 0 0 0 0 0 0 0 0 0 0 0 0 0 0 0 0 0 0 0 0 0 0 1 0 0 0 0 0 0 0 0 0 0 0 0 0 0 0
0 0 0 0 0 0 0 0 0 0 0 0 0 0 0 0 0 0 0 0 0 1 0 0 0 1 1 1 1 1 0 0 0 0 0 0 0 0 0 0 0 0 0 0
0 0 0 0 0 0 0 0 0 0 0 0 0 0 0 0 0 0 0 0 0 0 0 0 0 1 2 2 1 0 0 0 0 0 0 0 0 0 0 0 0 0 0 0
0 0 0 0 0 0 0 0 0 0 0 0 0 0 0 0 0 0 0 0 0 0 0 0 0 1 2 2 2 1 0 0 0 0 0 0 0 0 0 0 1 0 2 0
0 0 0 0 0 0 0 0 0 0 0 0 0 0 0 0 0 0 0 0 0 0 0 0 0 1 2 2 2 1 0 0 0 0 0 0 0 0 0 0 0 0 0 0
CIN
-0 -0 -0 -0 -0 -0 -0 -0 -0 -0 -0 -0 -0 -0 -0 -0 -0 -0 -0 -0 -0 -0 -0 -0 -0 -0 -0 -0 -0 -0 -0 -0 -0 -0 -0 -0 -0 -0 -0 -0 -3 -0 -0 -0
-0 -0 -0 -0 -0 -0 -0 -0 -0 -0 -0 -0 -0 -0 -0 -0 -0 -0 -0 -0 -0 -0 -0 -0 -0 -0 -0 -0 -0 -0 -0 -0 -0 -0 -0 -0 -2 -0 -0 -0 -0 -0 -0 -0
-0 -0 -0 -0 -0 -0 -0 -0 -0 -0 -0 -0 -0 -0 -0 -0 -0 -0 -0 -0 -0 -0 -0 -0 -0 -0 -0 -0 -0 -0 -0 -0 -0 -0 -0 -0 -0 -1 -0 -0 -1 -1 -0 -1
-0 -0 -0 -0 -0 -0 -0 -0 -0 -0 -0 -0 -0 -0 -0 -0 -0 -0 -0 -0 -0 -0 -0 -0 -0 -0 -0 -0 -0 -0 -0 -0 -0 -0 -0 -0 -0 -0 -2 -0 -0 -0 -0 -0
-0 -0 -0 -0 -0 -0 -0 -0 -0 -0 -0 -0 -0 -0 -0 -0 -0 -0 -0 -0 -0 -0 -0 -0 -0 -0 -0 -0 -0 -1 -0 -0 -0 -1 -0 -0 -0 -0 -0 -0 -0 -0 -0 -0
-0 -0 -0 -0 -0 -0 -0 -0 -0 -0 -0 -0 -0 -0 -0 -0 -0 -0 -0 -0 -0 -0 -0 -0 -0 -0 -0 -0 -0 -0 -1 -0 -0 -0 -0 -0 -0 -0 -0 -0 -0 -0 -0 -0
-0 -0 -0 -0 -0 -0 -0 -0 -0 -0 -0 -0 -0 -0 -0 -0 -0 -0 -0 -0 -0 -0 -0 -0 -0 -0 -0 -0 -0 -0 -0 -0 -0 -0 -0 -0 -0 -0 -0 -0 -0 -0 -0 -0
-0 -0 -0 -0 -0 -0 -0 -0 -0 -0 -0 -0 -0 -0 -0 -0 -0 -0 -0 -0 -0 -0 -0 -0 -0 -0 -0 -0 -0 -0 -0 -0 -0 -0 -0 -0 -0 -0 -0 -0 -0 -0 -0 -0
-0 -0 -0 -0 -0 -0 -0 -0 -0 -0 -0 -0 -0 -0 -0 -0 -0 -0 -0 -0 -0 -0 -0 -0 -0 -0 -0 -0 -0 -0 -0 -0 -0 -0 -0 -0 -0 -0 -0 -0 -0 -0 -0 -0
-0 -0 -0 -0 -0 -0 -0 -0 -0 -0 -0 -0 -0 -0 -0 -0 -0 -0 -0 -0 -0 -0 -0 -0 -0 -0 -0 -0 -0 -0 -0 -0 -0 -0 -0 -0 -0 -0 -0 -0 -0 -0 -0 -0
-0 -0 -0 -0 -0 -0 -0 -0 -0 -0 -0 -0 -0 -0 -0 -0 -0 -0 -0 -0 -0 -0 -0 -0 -0 -0 -0 -0 -0 -0 -0 -0 -0 -0 -0 -0 -0 -0 -0 -0 -0 -0 -0 -0
-0 -0 -0 -0 -0 -0 -0 -0 -0 -0 -0 -0 -0 -0 -0 -0 -0 -0 -0 -0 -0 -0 -0 -0 -0 -0 -0 -0 -0 -0 -0 -0 -0 -0 -0 -0 -0 -0 -0 -0 -0 -0 -0 -0
-0 -0 -0 -0 -0 -0 -0 -0 -0 -0 -0 -0 -0 -0 -0 -0 -0 -0 -0 -0 -0 -0 -0 -0 -0 -0 -0 -0 -0 -0 -0 -0 -0 -0 -0 -0 -0 -0 -0 -0 -0 -0 -0 -0
-0 -0 -0 -0 -0 -0 -0 -0 -0 -0 -0 -0 -0 -0 -0 -0 -0 -0 -0 -0 -0 -0 -0 -0 -0 -0 -0 -0 -0 -0 -0 -0 -0 -0 -0 -0 -0 -0 -0 -0 -0 -0 -0 -0
-0 -0 -0 -0 -0 -0 -0 -0 -0 -0 -0 -0 -0 -0 -0 -0 -0 -0 -0 -0 -0 -0 -0 -0 -0 -0 -0 -0 -0 -0 -0 -0 -0 -1 -0 -0 -0 -0 -0 -0 -0 -0 -0 -0
-0 -0 -0 -0 -0 -0 -0 -0 -0 -0 -0 -0 -0 -0 -0 -0 -0 -0 -0 -0 -0 -0 -0 -0 -0 -0 -0 -0 -0 -0 -0 -0 -0 -1 -0 -0 -0 -0 -0 -0 -0 -0 -0 -0
-0 -0 -0 -0 -0 -0 -0 -0 -0 -0 -0 -0 -0 -0 -0 -0 -0 -0 -0 -0 -0 -0 -0 -0 -0 -0 -0 -0 -3 -0 -0 -1 -0 -0 -0 -0 -0 -0 -0 -0 -0 -0 -0 -0
-0 -0 -0 -0 -0 -0 -0 -0 -0 -0 -0 -0 -0 -0 -0 -0 -0 -0 -0 -0 -0 -0 -0 -0 -0 -0 -0 -0 -0 -0 -0 -2 -0 -1 -0 -0 -1 -0 -0 -0 -0 -0 -0 -0
-0 -0 -0 -0 -0 -0 -0 -0 -0 -0 -0 -0 -0 -0 -0 -0 -0 -0 -0 -0 -0 -0 -0 -0 -0 -0 -0 -0 -0 -0 -2 -0 -1 -1 -0 -0 -0 -0 -0 -0 -0 -0 -0 -0
-0 -0 -0 -0 -0 -0 -0 -0 -0 -0 -0 -0 -0 -0 -0 -0 -0 -0 -0 -0 -0 -0 -0 -0 -0 -0 -0 -0 -0 -0 -0 -4 -1 -0 -0 -0 -0 -0 -0 -0 -0 -0 -0 -0
-0 -0 -0 -0 -0 -0 -0 -0 -0 -0 -0 -0 -0 -0 -0 -0 -0 -0 -0 -0 -0 -0 -0 -0 -0 -0 -0 -0 -0 -0 -1 -9 -2 -0 -0 -0 -0 -1 -0 -0 -0 -0 -0 -0
-0 -0 -0 -0 -0 -0 -0 -0 -0 -0 -0 -0 -0 -0 -0 -0 -0 -0 -0 -0 -0 -0 -0 -0 -0 -0 -0 -0 -0 -0 -0 -0 -1 -0 -0 -0 -0 -0 -0 -0 -0 -0 -0 -0
-0 -0 -0 -0 -0 -0 -0 -0 -0 -0 -0 -0 -0 -0 -0 -0 -0 -0 -0 -0 -0 -1 -0 -0 -0 -0 -0 -0 -0 -0 -0 -0 -0 -0 -0 -0 -0 -0 -0 -0 -0 -0 -0 -0
-0 -0 -0 -0 -0 -0 -0 -0 -0 -0 -0 -0 -0 -0 -0 -0 -0 -0 -0 -0 -0 -0 -0 -0 -0 -0 -0 -0 -0 -0 -1 -0 -0 -0 -0 -0 -0 -0 -0 -0 -0 -0 -0 -0
-0 -0 -0 -0 -0 -0 -0 -0 -0 -0 -0 -0 -0 -0 -0 -0 -0 -0 -0 -0 -0 -0 -0 -0 -0 -0 -0 -0 -0 -0 -0 -0 -0 -0 -0 -0 -0 -0 -0 -0 -0 -0 -1 -0
-0 -0 -0 -0 -0 -0 -0 -0 -0 -0 -0 -0 -0 -0 -0 -0 -0 -0 -0 -0 -0 -1 -0 -0 -0 -0 -0 -0 -0 -0 -0 -0 -0 -0 -0 -0 -0 -0 -0 -0 -0 -0 -0 -0
Wind_Speed
26 27 30 28 30 26 19 24 31 36 25 30 26 26 27 28 35 39 43 50 48 45 42 38 42 41 43 44 42 44 40 40 40 35 32 30 28 30 31 30 27 30 41 41
20 30 23 21 30 33 25 28 33 26 30 28 22 25 26 29 34 40 47 50 47 45 42 44 45 47 46 44 39 38 36 31 31 28 27 26 26 27 26 29 28 26 29 39
26 25 19 25 30 35 25 30 33 28 30 25 23 28 29 28 31 40 46 45 43 43 41 44 45 40 39 38 38 36 32 28 25 27 27 29 30 26 26 26 29 24 22 29
25 26 26 27 28 31 23 32 25 23 27 29 26 37 31 33 37 43 49 47 45 45 42 40 39 38 37 36 36 34 29 27 26 27 27 28 26 24 21 21 22 26 21 20
24 27 31 29 27 26 23 22 20 17 21 25 30 36 30 37 45 49 48 49 50 46 38 36 37 35 40 40 35 33 29 27 26 25 24 23 22 22 20 19 19 18 27 23
26 24 26 27 20 24 26 29 23 26 26 31 35 34 38 41 47 47 43 42 28 35 33 36 33 38 36 36 36 31 28 26 24 22 22 22 21 21 19 18 18 17 18 21
26 32 24 33 29 23 38 40 33 35 38 37 38 38 36 38 42 42 41 35 30 34 36 33 34 37 36 34 33 31 27 25 23 22 22 21 21 20 18 17 15 15 15 16
30 30 33 31 34 28 34 38 37 38 40 39 34 39 33 37 40 40 40 34 24 26 32 32 33 36 36 34 36 29 26 25 24 23 22 21 20 20 20 17 15 14 12 12
31 29 23 29 29 34 29 35 26 30 29 36 35 35 23 43 43 40 49 36 38 31 28 35 30 37 33 34 34 29 27 25 24 24 24 23 21 21 21 19 16 14 11 9
27 27 25 26 22 32 32 30 35 32 41 42 40 41 45 48 46 42 43 39 37 33 34 33 28 32 31 31 32 30 28 27 27 27 27 25 23 22 23 21 18 15 10 6
27 24 27 25 31 34 32 32 32 28 33 39 44 41 42 45 43 37 40 35 32 24 38 29 29 29 29 30 33 32 31 30 30 30 30 27 25 26 26 24 22 19 10 3
26 25 29 29 24 25 31 31 33 37 38 34 36 37 40 42 38 36 39 32 28 32 33 29 30 29 29 30 33 34 33 31 30 33 33 33 30 26 23 21 24 26 22 13
26 29 31 29 25 24 29 29 31 30 30 36 42 39 41 35 38 33 36 33 38 36 35 37 38 28 29 30 33 36 32 31 34 38 38 36 34 30 20 19 22 23 27 19
23 26 30 32 29 25 27 28 30 33 35 37 36 42 41 38 38 32 35 35 37 29 30 33 38 29 28 31 33 34 35 34 39 43 46 47 36 31 21 18 19 21 18 21
25 28 27 26 24 24 25 26 28 31 30 37 37 42 41 37 34 30 29 38 38 34 36 44 33 26 28 29 30 33 37 35 39 43 47 54 45 24 21 28 20 21 21 28
24 28 27 26 24 25 24 24 27 28 32 32 34 36 35 31 31 27 19 43 41 33 37 36 27 27 27 28 31 34 35 32 36 41 46 46 35 28 23 32 30 21 29 37
26 28 29 30 27 25 29 27 29 30 29 31 40 37 35 34 34 29 45 44 40 32 32 35 24 27 26 29 31 32 30 29 36 40 41 38 25 26 29 26 27 25 20 16
26 28 27 29 28 33 26 24 25 29 27 29 31 34 33 33 29 26 41 36 33 32 27 37 21 22 24 26 28 27 26 31 36 39 38 30 23 21 20 23 25 23 22 22
26 26 28 31 29 25 26 25 29 32 31 30 35 35 32 32 28 29 29 37 32 29 19 25 19 20 22 25 25 24 27 30 34 35 35 29 24 22 22 26 29 23 25 26
24 25 27 28 31 31 27 24 24 24 32 31 34 35 34 35 39 33 27 35 32 26 28 21 17 19 21 22 22 23 25 26 31 30 32 30 25 25 25 23 24 28 31 31
26 26 28 28 28 25 23 22 22 35 32 30 30 32 33 35 30 27 20 30 29 23 26 21 15 17 18 19 19 21 22 23 27 25 27 29 27 27 25 25 25 27 30 33
24 26 27 27 28 30 19 22 28 24 24 27 27 29 29 29 28 27 22 27 27 25 25 21 15 15 15 17 17 18 20 20 23 23 23 24 27 27 26 27 27 29 30 34
24 21 24 22 23 21 20 22 22 22 23 25 26 27 28 28 30 28 25 27 28 25 24 20 13 13 14 16 16 16 17 18 22 23 21 21 24 28 26 28 30 32 34 35
18 18 20 22 20 19 19 20 21 23 23 23 24 26 28 30 29 29 26 28 29 25 24 21 12 12 14 16 15 14 14 15 21 22 22 21 22 25 29 29 31 33 35 37
19 18 19 19 19 20 17 19 21 22 22 23 26 27 28 29 30 29 26 17 29 27 25 20 12 11 12 16 14 13 13 13 17 19 20 19 20 21 24 30 32 34 39 41
14 17 19 21 19 21 19 19 20 21 22 24 26 27 27 29 31 30 29 15 31 28 27 22 16 12 12 15 13 13 12 12 13 15 17 17 17 19 23 25 29 36 40 42
Wind_Direction
21 16 8 11 8 4 359 356 352 345 355 356 357 1 3 5 4 3 1 358 358 359 1 3 360 358 356 352 351 347 345 344 340 339 337 334 331 328 323 320 315 311 302 296
40 18 28 24 9 2 6 359 354 359 354 355 4 1 4 5 7 6 1 359 360 0 3 0 359 357 355 352 352 352 346 343 344 339 334 333 330 323 319 319 313 306 304 297
35 28 34 26 14 7 12 5 357 355 359 10 6 358 1 8 9 5 4 3 3 4 3 1 360 357 356 355 352 349 349 338 341 335 336 332 330 322 320 316 317 311 302 302
38 32 28 24 20 15 16 4 359 1 4 1 9 354 3 5 3 2 1 2 2 3 4 2 358 359 353 349 356 348 345 345 340 346 339 330 327 318 318 311 306 310 302 288
35 31 24 23 20 20 15 353 358 7 10 7 9 360 4 6 360 360 2 353 350 2 5 359 1 347 358 1 345 356 340 339 334 334 337 332 329 329 318 313 305 293 308 298
43 45 38 28 24 30 12 12 30 25 20 9 7 3 4 4 2 2 5 328 331 6 1 4 346 359 0 355 359 346 339 336 335 335 334 336 332 326 321 318 314 308 303 305
36 30 38 28 27 32 18 16 15 12 10 5 5 8 9 11 10 8 8 322 326 7 6 340 352 2 357 353 355 355 339 337 340 343 346 342 341 338 329 322 321 312 312 302
26 20 25 28 28 22 25 24 21 9 7 3 6 7 10 16 12 10 9 321 338 347 337 3 358 2 1 358 3 352 345 345 348 351 353 351 348 350 347 338 332 321 305 295
24 26 40 34 36 31 25 23 26 15 12 8 13 16 21 10 9 11 341 325 326 334 346 339 354 10 355 6 6 358 351 352 354 356 358 356 353 352 350 345 339 329 314 289
29 26 33 33 39 33 35 29 21 21 11 9 9 11 7 9 9 10 330 326 327 332 336 340 357 345 354 6 9 8 7 7 2 2 2 360 355 359 4 360 352 345 329 294
30 34 28 35 28 25 28 28 27 23 20 11 6 12 16 11 11 11 325 324 329 344 332 342 345 354 357 7 13 13 13 9 8 8 9 9 11 14 15 12 5 1 344 15
34 33 25 27 39 38 35 29 27 22 14 16 13 11 17 12 12 12 322 323 330 333 332 338 340 6 360 7 13 16 13 11 9 17 18 21 20 19 16 13 17 24 38 72
32 28 21 24 30 36 28 30 28 24 23 18 11 9 8 14 11 12 321 322 328 330 331 331 334 352 358 6 12 16 11 11 17 21 22 23 23 24 17 9 24 30 48 67
40 33 27 21 22 27 25 27 28 25 19 12 12 3 9 13 12 10 321 323 328 336 335 333 334 343 1 10 14 15 16 15 20 22 22 22 26 28 19 2 21 32 44 64
37 28 28 30 34 32 29 27 26 22 20 15 9 8 12 13 11 10 317 327 329 331 332 334 336 356 5 6 10 16 19 17 22 23 24 18 27 20 22 351 12 35 51 66
36 27 28 28 33 30 31 29 25 21 20 16 13 13 16 12 13 14 0 331 330 331 331 331 342 6 6 10 14 17 19 18 26 27 27 29 37 2 13 357 358 12 58 57
29 27 25 24 28 32 26 28 26 21 22 20 15 15 14 14 16 13 347 332 328 330 331 331 347 11 10 15 17 19 18 21 30 30 31 34 32 1 2 9 8 11 55 41
28 27 28 24 27 23 32 38 32 22 27 28 23 17 17 16 14 17 6 326 326 328 333 331 355 6 14 16 20 20 21 29 33 34 35 35 31 12 24 36 31 35 53 65
30 29 25 22 22 29 31 34 27 23 24 31 19 18 19 17 16 23 18 327 325 327 349 331 4 10 18 20 17 22 27 33 38 38 39 38 35 37 43 54 55 50 55 60
30 33 28 25 22 22 27 34 34 34 25 25 21 20 19 18 19 16 13 325 325 327 329 333 357 15 22 19 17 26 29 32 41 41 44 44 43 50 54 51 59 67 68 66
21 24 22 24 23 26 36 38 37 22 20 22 24 23 21 20 19 13 6 323 325 329 330 332 354 16 18 14 13 28 28 31 43 45 50 52 48 57 58 60 62 67 72 74
21 21 21 25 23 23 46 37 29 31 30 27 28 26 23 21 19 19 18 323 327 330 331 334 347 6 7 9 11 23 25 26 47 50 53 55 59 57 62 64 67 71 73 75
19 26 22 28 27 39 45 39 38 37 32 31 30 28 25 22 21 21 21 323 326 329 330 331 345 357 3 358 7 16 20 24 49 56 56 58 64 65 63 68 69 72 74 75
25 31 28 28 35 38 42 43 40 37 36 36 34 30 27 24 23 23 24 323 327 328 329 328 339 354 358 347 358 13 20 26 55 59 61 64 65 70 70 71 73 74 74 75
22 37 30 28 35 41 50 45 43 41 42 37 34 31 29 26 25 25 26 337 326 327 328 325 330 345 348 340 351 2 12 22 52 61 66 67 68 71 77 77 75 77 76 74
36 30 29 28 47 42 49 52 51 47 42 38 34 31 31 29 26 26 27 13 327 328 328 324 321 330 337 333 343 353 1 15 44 61 68 70 72 75 79 82 84 80 78 76